SHIYAN 24C 01

导读 | 豆包AI

SHIYAN 24C 01(试验二十四号C卫星)是中国于北京时间2023年12月25日发射的空间技术试验卫星,本次任务由太原卫星发射中心在广东阳江附近海域,通过长征十一号运载火箭完成发射,卫星顺利进入预定轨道,发射任务取得圆满成功,该卫星主要用于开展空间科学技术试验验证,是长征系列运载火箭第503次飞行。

基本信息
目录编号:
58650
目录名称:
SHIYAN 24C 01
国际标识:
2023-206A
轨道中心:
EARTH
卫星名称:
SHIYAN 24C 01
卫星全名:
--
卫星状态:
在轨 (已飞行857 天)
发射日期:
2023-12-25 UTC
国别 :
中国 (CN)
星等 :
--
轨道信息
数据来源 国际轨道数据
星历时间: 2026-04-30T01:27:17+0800
20小时前
查看轨道信息
半长轴: 6951.173km
偏心率: 0.0003228
轨道倾角: 97.403°
近地点辐角 20.024°
升交点赤经 89.982°
平近点角 340.111°
近地点: 570.792km
远地点: 575.28km
周期: 96.127分钟
每日圈数: 14.980134
详细信息
使用方式:
暂无
2D轨道图
3D轨道图
轨道高度分析图
轨道倾角分析图
轨道综合分析图
查看轨道综合分析图